SCP
0 0 0 0 0 0 0 0 0 0 0 0 0 0 0 0 0 0 0 0 0 0 0 0 0 0 0 0 0 0 0 0 0 0 0 0 -0 -0 0 0 0 0 0 0
0 0 0 0 0 0 0 0 0 0 0 0 0 0 0 0 0 0 0 0 0 0 0 0 0 0 0 0 0 0 0 0 0 0 0 0 0 0 0 0 0 0 0 0
0 0 0 0 0 0 0 0 0 0 0 0 0 0 0 0 0 0 0 0 0 0 0 0 0 0 0 0 0 0 0 0 0 0 0 0 0 -0 0 0 0 0 0 0
0 0 0 0 0 0 0 0 0 0 0 0 0 0 0 0 0 0 0 0 0 0 0 0 0 0 0 0 0 0 0 0 0 0 0 0 0 0 0 0 0 0 0 0
0 0 0 0 0 0 0 0 0 0 0 0 0 0 0 0 0 0 0 0 0 0 0 0 0 0 0 0 0 0 0 0 0 0 0 0 0 0 0 0 0 0 0 0
0 0 0 0 0 0 0 0 0 0 0 0 0 0 0 0 0 0 0 0 0 0 0 0 0 0 0 0 0 0 0 0 0 0 0 0 0 0 0 0 0 0 0 0
0 0 0 0 0 0 0 0 0 0 0 0 0 0 0 0 0 0 0 0 0 0 0 0 0 0 0 0 0 0 0 0 0 0 0 0 0 0 0 0 0 0 0 0
0 0 0 0 0 0 0 0 0 0 0 0 0 0 0 0 0 0 0 0 0 0 0 0 0 0 0 0 0 0 0 0 0 0 0 0 0 0 0 0 0 0 0 0
0 0 0 0 0 0 0 0 0 0 0 0 0 0 0 0 0 0 0 0 0 0 0 0 0 0 0 0 0 0 0 0 0 0 0 0 0 0 0 0 0 0 0 0
0 0 0 0 0 0 0 0 0 0 0 0 0 0 0 0 0 0 0 0 0 0 0 0 0 0 0 0 0 0 0 0 0 0 0 0 0 0 0 0 0 0 0 0
0 0 0 0 0 0 0 0 0 0 0 0 0 0 0 0 0 0 0 0 0 0 0 0 0 0 0 0 0 0 0 0 0 0 0 0 0 0 0 0 0 0 0 0
0 0 0 0 0 0 0 0 0 0 0 0 0 0 0 0 0 0 0 0 0 0 0 0 0 0 0 0 0 0 0 0 0 0 0 0 0 0 0 0 0 0 0 0
0 0 0 0 0 0 0 -0 -0 0 0 0 0 0 0 0 0 0 0 0 0 0 0 0 0 0 0 0 0 0 0 0 0 0 0 0 0 0 0 0 0 0 0 0
0 0 0 0 0 -0 -0 0 0 0 0 0 0 0 0 0 0 0 0 0 0 0 0 0 0 0 0 0 0 0 0 0 0 0 0 0 0 0 0 0 0 0 0 0
-0 -0 -0 -0 -0 0 0 0 -0 -0 0 0 0 0 0 0 0 0 0 0 0 0 0 0 0 0 0 0 0 0 0 0 0 0 0 0 0 0 0 0 0 0 0 0
-0 -0 -0 0 0 0 -0 -0 -0 -0 0 0 0 0 0 0 0 0 0 0 0 0 0 0 0 0 0 0 0 0 0 0 0 0 0 0 0 0 0 0 0 0 0 0
0 0 -0 -0 -0 -0 -0 -0 -0 -0 0 0 0 0 0 0 0 0 0 0 0 0 0 0 0 0 0 0 0 0 0 0 0 0 0 0 0 0 0 0 0 0 0 0
0 0 0 -0 -0 0 0 0 -0 0 0 0 0 0 0 0 0 0 0 0 0 0 0 0 0 0 0 0 0 0 0 0 0 0 0 0 0 0 0 0 0 0 0 0
0 -0 -0 -0 -0 -0 -0 -0 -0 0 0 0 0 0 0 0 0 0 0 0 0 0 0 0 0 0 0 0 0 0 0 0 0 0 0 0 0 0 0 0 0 0 0 0
-0 -0 -0 -0 -0 -0 -0 -0 -0 0 -0 0 -0 -0 -0 -0 -0 -0 0 0 0 0 0 0 0 0 0 0 0 0 0 0 0 0 0 0 -0 0 0 0 -0 0 0 0
0 -0 0 -0 -0 0 0 0 0 0 0 0 0 0 0 -0 -0 -0 0 0 0 0 0 0 0 0 0 0 0 0 0 0 0 0 0 -0 -0 0 0 0 -0 0 0 0
0 0 0 0 0 0 0 0 0 0 0 0 0 0 0 0 0 0 0 0 0 0 0 0 0 0 0 0 0 0 0 0 0 0 0 -0 -0 0 0 -0 -0 0 0 0
0 0 0 0 0 0 0 0 0 0 0 0 0 0 0 0 0 0 0 0 0 0 0 0 0 0 0 -0 0 0 0 0 0 0 -0 -0 0 0 0 0 0 0 0 0
0 0 0 0 0 0 0 0 0 0 0 0 0 0 0 0 0 0 0 0 0 0 0 0 0 0 0 0 0 0 0 0 0 -0 -0 0 0 0 0 0 0 0 0 0
0 0 0 0 0 0 0 0 0 0 0 0 0 0 0 0 0 0 0 0 0 0 0 0 0 0 0 0 0 0 0 0 0 -0 0 0 0 0 0 0 0 0 0 0
0 0 0 0 0 0 0 0 0 0 0 0 0 0 0 0 0 0 0 0 0 0 0 0 0 0 0 0 0 0 0 0 0 -0 0 0 0 0 0 0 0 0 0 0
0 -0 -0 -0 -0 0 0 0 0 0 0 0 0 0 0 0 0 0 0 0 0 0 0 0 0 0 0 0 0 0 0 0 0 0 0 0 0 0 0 0 0 0 0 0
Wind_Speed_500mb
12 12 10 14 12 18 14 12 17 15 24 24 26 29 47 56 46 48 43 42 40 33 26 12 12 17 21 19 18 20 23 24 25 29 36 45 49 48 45 43 39 34 31 31
7 13 15 15 16 17 25 17 14 14 13 14 30 27 35 54 54 53 49 48 32 25 21 20 18 17 15 15 17 22 25 27 31 35 38 41 46 48 47 49 49 46 43 38
13 8 2 19 25 25 13 12 14 12 15 7 6 16 36 51 59 58 45 33 16 21 20 19 16 17 18 24 30 35 40 43 46 50 51 54 56 58 60 60 60 60 60 58
7 5 19 8 12 20 23 12 11 10 9 8 11 15 26 40 39 29 32 46 22 21 17 14 16 19 27 34 40 46 47 45 45 48 52 52 51 48 46 45 45 46 51 53
7 12 15 7 6 13 15 14 10 17 16 29 38 51 34 39 39 35 32 33 23 15 14 17 19 26 37 45 46 47 50 50 51 51 53 50 43 42 40 42 43 44 46 48
6 7 22 7 27 20 9 5 21 39 34 42 32 9 7 36 37 32 24 17 15 15 14 16 22 29 36 42 47 49 52 52 47 45 45 51 50 38 41 46 51 51 49 48
16 14 13 14 17 26 15 12 44 53 61 49 10 15 51 38 31 25 23 21 15 9 12 20 28 36 44 47 49 47 46 46 42 45 50 51 48 44 45 46 49 46 47 47
4 9 19 8 6 22 16 16 62 53 58 38 47 56 45 39 35 25 18 10 6 16 25 31 35 38 39 40 40 44 44 50 57 56 53 49 45 44 44 43 41 45 46 52
11 10 11 25 21 30 24 52 51 68 67 64 58 52 43 36 27 18 8 3 12 21 26 29 30 31 32 38 39 43 48 51 55 47 45 43 43 42 41 38 38 41 42 46
10 8 9 21 9 14 30 52 63 63 60 54 57 46 38 29 20 9 1 7 16 23 28 28 26 27 32 37 41 45 47 50 52 52 52 50 51 48 46 47 47 43 43 46
10 12 7 25 29 45 60 57 49 51 44 38 38 32 27 21 12 3 5 13 21 28 28 21 23 29 36 40 43 43 46 50 52 52 51 50 47 47 45 42 39 40 42 47
8 8 5 15 29 48 58 46 22 31 41 31 23 27 18 12 5 4 12 19 25 25 20 21 29 34 42 38 40 44 48 51 50 49 50 50 52 53 44 46 44 39 38 36
2 3 28 42 36 33 30 42 45 31 30 31 27 17 11 5 1 8 14 18 23 17 18 25 32 38 43 45 48 45 48 51 52 51 52 54 55 59 62 53 47 41 40 38
26 36 40 44 36 31 32 35 34 33 27 22 18 13 6 4 5 8 13 17 16 16 19 28 38 37 40 46 49 44 45 45 44 47 50 52 53 56 58 60 61 58 49 50
40 40 43 39 26 42 33 29 32 32 26 20 10 8 7 3 5 8 11 14 14 17 26 33 42 43 39 45 47 46 47 45 46 49 49 50 52 54 58 61 63 64 63 57
29 10 26 41 38 34 31 32 31 24 15 13 9 6 5 6 6 8 13 14 18 29 34 38 31 35 36 44 47 49 46 44 46 50 53 53 54 61 62 63 63 64 65 61
48 49 51 48 43 35 31 24 20 19 16 10 8 8 5 5 8 14 14 17 20 25 25 37 39 38 44 48 48 51 49 47 48 52 54 55 58 63 58 59 59 60 63 59
46 44 39 36 39 37 33 26 24 22 16 12 11 9 10 13 20 17 16 22 23 18 27 34 40 45 46 47 49 54 51 47 51 55 57 59 62 65 60 58 59 58 56 53
41 46 48 56 56 47 40 32 30 24 21 21 22 26 28 28 26 24 22 25 28 13 34 42 46 55 54 48 56 58 53 49 53 56 58 61 64 63 61 58 55 53 52 51
49 51 51 49 41 35 31 25 26 29 34 29 32 36 37 37 37 35 34 35 38 35 40 43 48 58 57 56 63 57 51 52 56 60 64 62 62 64 63 58 55 53 51 48
40 38 31 29 27 20 17 19 20 19 27 29 27 29 33 35 37 40 39 38 34 35 36 38 48 62 58 64 62 53 53 53 59 64 63 61 65 65 62 58 54 53 52 48
21 19 15 15 10 9 7 9 14 15 12 19 22 20 22 26 30 31 30 36 42 44 43 47 58 58 58 61 56 53 53 54 62 65 61 62 64 64 61 56 54 52 50 47
4 5 6 8 11 7 5 7 10 15 11 13 16 17 15 16 22 29 33 37 43 49 47 51 58 54 58 57 54 54 54 57 66 70 64 64 65 62 58 56 56 55 54 50
11 12 7 11 15 9 10 5 13 15 12 9 9 12 13 15 20 25 26 33 44 49 46 55 55 54 57 55 54 57 60 60 66 74 70 68 68 64 60 59 61 59 54 49
8 12 11 18 13 12 9 3 6 14 9 7 6 8 10 12 18 19 22 31 46 47 48 53 54 54 57 57 58 59 64 67 67 73 73 71 74 71 65 63 63 61 56 50
14 13 15 18 22 8 12 4 4 16 14 9 8 8 6 9 13 19 20 35 43 46 48 52 55 56 57 62 63 63 65 72 74 74 77 74 79 78 72 68 67 65 60 56
20 13 7 9 24 10 4 8 11 18 12 15 23 16 11 11 17 24 30 39 41 44 48 51 54 56 59 62 67 69 68 75 80 78 78 80 76 84 79 76 74 71 64 56
Wind_Direction_500mb
229 225 195 202 185 173 190 194 193 229 225 238 220 217 220 213 207 207 210 214 212 227 234 231 233 225 229 249 270 255 267 284 280 279 286 293 302 301 304 301 299 295 295 278
247 204 219 240 214 203 216 226 250 263 261 224 264 243 211 203 204 208 212 217 237 220 240 252 231 215 230 247 270 287 291 294 293 292 290 289 290 292 291 288 284 282 281 282
253 224 307 267 206 211 212 192 184 200 227 153 221 203 194 190 197 207 209 214 237 213 191 185 212 242 261 283 295 299 301 301 300 299 297 297 298 297 293 288 284 280 275 273
240 77 241 261 195 202 209 218 172 114 144 162 150 152 173 185 178 195 218 207 196 190 204 230 259 281 296 303 309 310 307 309 311 312 313 310 309 305 304 298 295 289 281 276
189 209 279 283 216 175 172 236 179 132 132 137 120 113 110 149 158 161 161 170 187 209 238 264 285 303 311 314 316 315 314 313 314 317 316 318 321 315 309 304 298 295 293 286
164 202 235 207 206 183 100 226 172 150 159 156 138 122 230 153 154 150 159 177 199 219 247 270 286 304 311 311 313 315 317 320 320 322 321 319 319 313 307 307 302 299 292 288
237 225 279 253 259 177 198 228 172 174 168 169 158 171 152 151 153 159 163 174 191 224 283 305 308 305 306 310 314 319 320 320 323 321 314 311 309 307 307 305 305 301 295 292
101 206 254 263 246 204 221 158 170 175 175 172 137 138 146 149 149 155 163 172 254 293 300 306 308 309 312 316 321 323 326 325 321 317 317 320 320 322 320 316 308 297 296 299
185 216 283 315 284 293 202 167 161 156 151 144 143 147 152 149 151 158 161 291 318 321 322 321 316 314 318 323 326 325 325 325 322 327 332 333 331 330 332 327 315 313 310 303
347 347 -0 10 28 194 164 158 153 147 145 147 148 151 146 147 149 149 167 323 329 324 320 317 318 323 326 323 320 320 323 325 334 335 338 341 341 336 330 330 328 319 305 296
284 267 206 57 85 117 123 125 128 132 130 134 138 139 139 142 144 159 320 320 319 320 324 328 333 333 328 320 319 321 323 327 331 332 334 333 335 336 332 328 319 311 304 292
232 274 286 116 98 103 108 112 122 141 130 137 136 140 142 145 168 300 316 315 321 326 332 340 336 332 323 326 325 324 325 328 329 329 331 329 329 325 326 327 328 322 312 306
265 161 146 128 101 110 109 127 143 144 136 134 133 135 138 141 184 309 307 322 332 347 346 336 328 322 327 327 327 322 318 318 319 322 325 328 329 326 324 321 320 321 323 320
87 98 90 142 160 156 156 143 128 128 125 125 127 119 96 14 323 295 322 344 357 354 338 336 333 332 330 327 330 331 330 331 326 322 322 324 324 322 320 319 319 317 317 316
136 132 127 131 136 127 123 121 123 122 120 108 89 55 40 11 304 330 350 3 3 342 331 330 331 331 327 326 333 334 334 336 331 327 325 323 323 323 325 323 318 316 317 313
182 172 142 134 118 119 119 122 119 111 89 72 69 74 38 5 353 3 29 18 356 348 339 333 342 338 340 344 343 338 334 333 331 328 325 324 325 326 323 320 316 314 313 312
129 117 117 114 115 109 100 92 91 87 76 75 67 48 29 33 32 36 27 2 347 348 28 17 7 355 351 345 340 340 336 331 329 327 329 328 326 328 321 315 314 311 308 307
130 125 117 112 103 93 90 92 94 90 71 82 72 65 46 33 30 35 17 353 5 30 25 16 5 357 350 343 340 339 335 331 330 332 331 329 326 326 324 320 317 314 310 308
115 113 106 101 97 96 94 97 97 91 82 80 70 58 49 47 43 35 17 6 5 8 16 7 355 354 348 347 341 338 334 334 335 336 337 332 329 329 326 324 321 317 314 312
121 119 113 114 108 100 107 120 112 87 72 71 64 61 61 58 51 43 32 22 16 8 358 347 343 347 346 345 344 341 340 342 341 342 338 336 335 334 333 330 326 321 317 314
122 123 124 123 120 116 107 88 73 77 73 69 63 61 58 52 47 42 37 28 16 359 348 345 346 346 347 346 346 346 349 349 348 345 343 343 342 340 338 335 331 328 324 320
124 131 145 115 101 111 74 43 30 33 63 60 48 44 45 43 38 35 29 22 13 3 356 352 349 350 348 349 351 353 354 355 354 352 351 350 348 345 343 340 337 334 330 327
73 45 52 16 37 65 30 17 351 1 23 40 30 18 13 21 27 23 21 17 7 1 355 353 353 353 353 355 357 359 360 0 360 1 358 356 354 352 349 348 346 343 339 334
46 7 11 13 20 4 -0 26 29 349 355 27 3 342 346 10 17 18 7 4 1 358 357 357 360 359 360 1 4 6 6 4 3 5 4 3 2 1 359 357 355 352 348 342
17 21 45 39 19 5 3 5 16 12 33 42 9 357 352 1 14 4 354 358 358 1 2 4 5 6 7 9 11 10 11 10 8 7 8 8 10 8 7 3 2 0 358 355
22 27 31 19 2 345 350 206 328 18 29 20 348 324 339 26 21 12 3 359 3 6 8 9 10 11 13 15 16 15 14 14 14 14 14 13 14 15 14 11 8 7 5 5
66 55 52 1 358 23 91 129 20 15 23 20 10 12 15 26 22 16 6 7 11 13 13 14 14 15 17 19 19 20 19 19 19 17 16 17 17 18 20 19 17 15 13 14
Wind_Speed_850mb
12 12 10 14 12 18 14 12 17 15 24 24 26 29 47 56 46 48 43 42 40 33 26 12 12 17 21 19 18 20 23 24 25 29 36 45 49 48 45 43 39 34 31 31
7 13 15 15 16 17 25 17 14 14 13 14 30 27 35 54 54 53 49 48 32 25 21 20 18 17 15 15 17 22 25 27 31 35 38 41 46 48 47 49 49 46 43 38
13 8 2 19 25 25 13 12 14 12 15 7 6 16 36 51 59 58 45 33 16 21 20 19 16 17 18 24 30 35 40 43 46 50 51 54 56 58 60 60 60 60 60 58
7 5 19 8 12 20 23 12 11 10 9 8 11 15 26 40 39 29 32 46 22 21 17 14 16 19 27 34 40 46 47 45 45 48 52 52 51 48 46 45 45 46 51 53
7 12 15 7 6 13 15 14 10 17 16 29 38 51 34 39 39 35 32 33 23 15 14 17 19 26 37 45 46 47 50 50 51 51 53 50 43 42 40 42 43 44 46 48
6 7 22 7 27 20 9 5 21 39 34 42 32 9 7 36 37 32 24 17 15 15 14 16 22 29 36 42 47 49 52 52 47 45 45 51 50 38 41 46 51 51 49 48
16 14 13 14 17 26 15 12 44 53 61 49 10 15 51 38 31 25 23 21 15 9 12 20 28 36 44 47 49 47 46 46 42 45 50 51 48 44 45 46 49 46 47 47
4 9 19 8 6 22 16 16 62 53 58 38 47 56 45 39 35 25 18 10 6 16 25 31 35 38 39 40 40 44 44 50 57 56 53 49 45 44 44 43 41 45 46 52
11 10 11 25 21 30 24 52 51 68 67 64 58 52 43 36 27 18 8 3 12 21 26 29 30 31 32 38 39 43 48 51 55 47 45 43 43 42 41 38 38 41 42 46
10 8 9 21 9 14 30 52 63 63 60 54 57 46 38 29 20 9 1 7 16 23 28 28 26 27 32 37 41 45 47 50 52 52 52 50 51 48 46 47 47 43 43 46
10 12 7 25 29 45 60 57 49 51 44 38 38 32 27 21 12 3 5 13 21 28 28 21 23 29 36 40 43 43 46 50 52 52 51 50 47 47 45 42 39 40 42 47
8 8 5 15 29 48 58 46 22 31 41 31 23 27 18 12 5 4 12 19 25 25 20 21 29 34 42 38 40 44 48 51 50 49 50 50 52 53 44 46 44 39 38 36
2 3 28 42 36 33 30 42 45 31 30 31 27 17 11 5 1 8 14 18 23 17 18 25 32 38 43 45 48 45 48 51 52 51 52 54 55 59 62 53 47 41 40 38
26 36 40 44 36 31 32 35 34 33 27 22 18 13 6 4 5 8 13 17 16 16 19 28 38 37 40 46 49 44 45 45 44 47 50 52 53 56 58 60 61 58 49 50
40 40 43 39 26 42 33 29 32 32 26 20 10 8 7 3 5 8 11 14 14 17 26 33 42 43 39 45 47 46 47 45 46 49 49 50 52 54 58 61 63 64 63 57
29 10 26 41 38 34 31 32 31 24 15 13 9 6 5 6 6 8 13 14 18 29 34 38 31 35 36 44 47 49 46 44 46 50 53 53 54 61 62 63 63 64 65 61
48 49 51 48 43 35 31 24 20 19 16 10 8 8 5 5 8 14 14 17 20 25 25 37 39 38 44 48 48 51 49 47 48 52 54 55 58 63 58 59 59 60 63 59
46 44 39 36 39 37 33 26 24 22 16 12 11 9 10 13 20 17 16 22 23 18 27 34 40 45 46 47 49 54 51 47 51 55 57 59 62 65 60 58 59 58 56 53
41 46 48 56 56 47 40 32 30 24 21 21 22 26 28 28 26 24 22 25 28 13 34 42 46 55 54 48 56 58 53 49 53 56 58 61 64 63 61 58 55 53 52 51
49 51 51 49 41 35 31 25 26 29 34 29 32 36 37 37 37 35 34 35 38 35 40 43 48 58 57 56 63 57 51 52 56 60 64 62 62 64 63 58 55 53 51 48
40 38 31 29 27 20 17 19 20 19 27 29 27 29 33 35 37 40 39 38 34 35 36 38 48 62 58 64 62 53 53 53 59 64 63 61 65 65 62 58 54 53 52 48
21 19 15 15 10 9 7 9 14 15 12 19 22 20 22 26 30 31 30 36 42 44 43 47 58 58 58 61 56 53 53 54 62 65 61 62 64 64 61 56 54 52 50 47
4 5 6 8 11 7 5 7 10 15 11 13 16 17 15 16 22 29 33 37 43 49 47 51 58 54 58 57 54 54 54 57 66 70 64 64 65 62 58 56 56 55 54 50
11 12 7 11 15 9 10 5 13 15 12 9 9 12 13 15 20 25 26 33 44 49 46 55 55 54 57 55 54 57 60 60 66 74 70 68 68 64 60 59 61 59 54 49
8 12 11 18 13 12 9 3 6 14 9 7 6 8 10 12 18 19 22 31 46 47 48 53 54 54 57 57 58 59 64 67 67 73 73 71 74 71 65 63 63 61 56 50
14 13 15 18 22 8 12 4 4 16 14 9 8 8 6 9 13 19 20 35 43 46 48 52 55 56 57 62 63 63 65 72 74 74 77 74 79 78 72 68 67 65 60 56
20 13 7 9 24 10 4 8 11 18 12 15 23 16 11 11 17 24 30 39 41 44 48 51 54 56 59 62 67 69 68 75 80 78 78 80 76 84 79 76 74 71 64 56
Wind_Direction_850mb
229 225 195 202 185 173 190 194 193 229 225 238 220 217 220 213 207 207 210 214 212 227 234 231 233 225 229 249 270 255 267 284 280 279 286 293 302 301 304 301 299 295 295 278
247 204 219 240 214 203 216 226 250 263 261 224 264 243 211 203 204 208 212 217 237 220 240 252 231 215 230 247 270 287 291 294 293 292 290 289 290 292 291 288 284 282 281 282
253 224 307 267 206 211 212 192 184 200 227 153 221 203 194 190 197 207 209 214 237 213 191 185 212 242 261 283 295 299 301 301 300 299 297 297 298 297 293 288 284 280 275 273
240 77 241 261 195 202 209 218 172 114 144 162 150 152 173 185 178 195 218 207 196 190 204 230 259 281 296 303 309 310 307 309 311 312 313 310 309 305 304 298 295 289 281 276
189 209 279 283 216 175 172 236 179 132 132 137 120 113 110 149 158 161 161 170 187 209 238 264 285 303 311 314 316 315 314 313 314 317 316 318 321 315 309 304 298 295 293 286
164 202 235 207 206 183 100 226 172 150 159 156 138 122 230 153 154 150 159 177 199 219 247 270 286 304 311 311 313 315 317 320 320 322 321 319 319 313 307 307 302 299 292 288
237 225 279 253 259 177 198 228 172 174 168 169 158 171 152 151 153 159 163 174 191 224 283 305 308 305 306 310 314 319 320 320 323 321 314 311 309 307 307 305 305 301 295 292
101 206 254 263 246 204 221 158 170 175 175 172 137 138 146 149 149 155 163 172 254 293 300 306 308 309 312 316 321 323 326 325 321 317 317 320 320 322 320 316 308 297 296 299
185 216 283 315 284 293 202 167 161 156 151 144 143 147 152 149 151 158 161 291 318 321 322 321 316 314 318 323 326 325 325 325 322 327 332 333 331 330 332 327 315 313 310 303
347 347 -0 10 28 194 164 158 153 147 145 147 148 151 146 147 149 149 167 323 329 324 320 317 318 323 326 323 320 320 323 325 334 335 338 341 341 336 330 330 328 319 305 296
284 267 206 57 85 117 123 125 128 132 130 134 138 139 139 142 144 159 320 320 319 320 324 328 333 333 328 320 319 321 323 327 331 332 334 333 335 336 332 328 319 311 304 292
232 274 286 116 98 103 108 112 122 141 130 137 136 140 142 145 168 300 316 315 321 326 332 340 336 332 323 326 325 324 325 328 329 329 331 329 329 325 326 327 328 322 312 306
265 161 146 128 101 110 109 127 143 144 136 134 133 135 138 141 184 309 307 322 332 347 346 336 328 322 327 327 327 322 318 318 319 322 325 328 329 326 324 321 320 321 323 320
87 98 90 142 160 156 156 143 128 128 125 125 127 119 96 14 323 295 322 344 357 354 338 336 333 332 330 327 330 331 330 331 326 322 322 324 324 322 320 319 319 317 317 316
136 132 127 131 136 127 123 121 123 122 120 108 89 55 40 11 304 330 350 3 3 342 331 330 331 331 327 326 333 334 334 336 331 327 325 323 323 323 325 323 318 316 317 313
182 172 142 134 118 119 119 122 119 111 89 72 69 74 38 5 353 3 29 18 356 348 339 333 342 338 340 344 343 338 334 333 331 328 325 324 325 326 323 320 316 314 313 312
129 117 117 114 115 109 100 92 91 87 76 75 67 48 29 33 32 36 27 2 347 348 28 17 7 355 351 345 340 340 336 331 329 327 329 328 326 328 321 315 314 311 308 307
130 125 117 112 103 93 90 92 94 90 71 82 72 65 46 33 30 35 17 353 5 30 25 16 5 357 350 343 340 339 335 331 330 332 331 329 326 326 324 320 317 314 310 308
115 113 106 101 97 96 94 97 97 91 82 80 70 58 49 47 43 35 17 6 5 8 16 7 355 354 348 347 341 338 334 334 335 336 337 332 329 329 326 324 321 317 314 312
121 119 113 114 108 100 107 120 112 87 72 71 64 61 61 58 51 43 32 22 16 8 358 347 343 347 346 345 344 341 340 342 341 342 338 336 335 334 333 330 326 321 317 314
122 123 124 123 120 116 107 88 73 77 73 69 63 61 58 52 47 42 37 28 16 359 348 345 346 346 347 346 346 346 349 349 348 345 343 343 342 340 338 335 331 328 324 320
124 131 145 115 101 111 74 43 30 33 63 60 48 44 45 43 38 35 29 22 13 3 356 352 349 350 348 349 351 353 354 355 354 352 351 350 348 345 343 340 337 334 330 327
73 45 52 16 37 65 30 17 351 1 23 40 30 18 13 21 27 23 21 17 7 1 355 353 353 353 353 355 357 359 360 0 360 1 358 356 354 352 349 348 346 343 339 334
46 7 11 13 20 4 -0 26 29 349 355 27 3 342 346 10 17 18 7 4 1 358 357 357 360 359 360 1 4 6 6 4 3 5 4 3 2 1 359 357 355 352 348 342
17 21 45 39 19 5 3 5 16 12 33 42 9 357 352 1 14 4 354 358 358 1 2 4 5 6 7 9 11 10 11 10 8 7 8 8 10 8 7 3 2 0 358 355
22 27 31 19 2 345 350 206 328 18 29 20 348 324 339 26 21 12 3 359 3 6 8 9 10 11 13 15 16 15 14 14 14 14 14 13 14 15 14 11 8 7 5 5
66 55 52 1 358 23 91 129 20 15 23 20 10 12 15 26 22 16 6 7 11 13 13 14 14 15 17 19 19 20 19 19 19 17 16 17 17 18 20 19 17 15 13 14